This is the latest recevied weather packets stored in our database for station/object IZ5ILU-16. If no packets are shown the sender has not sent any weather packets the latest 10 day(s).
| Time | Temp. | Humidity | Pressure | Rain* | Wind** | Luminosity | Snow |
|---|---|---|---|---|---|---|---|
| 1788556301 | 25.56° C | 67% | 1019.2 hPa | 0 mm | - | - | - |
| 1788555701 | 25.56° C | 66% | 1019.2 hPa | 0 mm | - | - | - |
| 1788555101 | 25.56° C | 66% | 1019.2 hPa | 0 mm | - | - | - |
| 1788554501 | 25.56° C | 65% | 1019.2 hPa | 0 mm | - | - | - |
| 1788553901 | 26.11° C | 64% | 1019.3 hPa | 0 mm | - | - | - |
| 1788553301 | 26.11° C | 63% | 1019.3 hPa | 0 mm | - | - | - |
| 1788552701 | 26.11° C | 64% | 1019.2 hPa | 0 mm | - | - | - |
| 1788552101 | 26.67° C | 63% | 1019.2 hPa | 0 mm | - | - | - |
| 1788551501 | 26.67° C | 62% | 1019.1 hPa | 0 mm | - | - | - |
| 1788550901 | 26.67° C | 61% | 1019 hPa | 0 mm | - | - | - |
| 1788550301 | 27.22° C | 59% | 1018.8 hPa | 0 mm | - | - | - |
| 1788549701 | 27.22° C | 62% | 1018.8 hPa | 0 mm | - | - | - |
| 1788549101 | 27.22° C | 63% | 1018.8 hPa | 0 mm | - | - | - |
| 1788548501 | 27.22° C | 63% | 1018.6 hPa | 0 mm | - | - | - |
| 1788547908 | 27.78° C | 61% | 1018.6 hPa | 0 mm | - | - | - |
| 1788547301 | 27.78° C | 59% | 1018.4 hPa | 0 mm | - | - | - |
| 1788546701 | 28.33° C | 59% | 1018.2 hPa | 0 mm | - | - | - |
| 1788546101 | 28.33° C | 58% | 1018.2 hPa | 0 mm | - | - | - |
| 1788545501 | 28.33° C | 58% | 1018 hPa | 0 mm | - | - | - |
| 1788544901 | 28.89° C | 56% | 1018 hPa | 0 mm | - | - | - |
| 1788544301 | 28.89° C | 55% | 1017.8 hPa | 0 mm | - | - | - |
| 1788543701 | 29.44° C | 53% | 1017.7 hPa | 0 mm | - | - | - |
| 1788543101 | 30° C | 52% | 1017.7 hPa | 0 mm | - | - | - |
| 1788542501 | 30° C | 50% | 1017.7 hPa | 0 mm | - | - | - |
| 1788541901 | 30.56° C | 47% | 1017.8 hPa | 0 mm | - | - | - |
* Rain latest hour (hover to see other rain measurements)
** Current wind speed in m/s (hover to see current wind gust speed)